Powrót do katalogu

METEOR 2-5 DEB

AktywnyPO
NORAD 39605·DEBRIS·🇷🇺 Russia

Wystrzelony Oct 31, 1979 z Plesetsk Cosmodrome

Loading…

Następne Przeloty (najbliższe 24 godziny)

TLE

ŚwieżeSource: Space-Track

Epoka: Sep 12, 2026, 18:59 UTC

1 39605U 79095CG  26255.79145818  .00005984  00000-0  14006-2 0  9995
2 39605  81.1766  13.3489 0019281  63.5420  88.2288 14.54407051665434

Śledź METEOR 2-5 DEB w czasie rzeczywistym z AllMySat

Download on the App Store